Weather in Novinskoye

Russia / Yaroslavl Oblast     57°53′39″N   37°48′27″E
temp.,
°C
wind,
m/s
gust,
m/s
humid.,
%
clouds,
%
prec.,
mm/h
press.,
hPa
HPBL,
m
21 april, wed
wed2100:00+5e41069100 0.0 1016895
03:00+2e41196100 1.0 1013589
06:000ene41397100 4.4 1008550
09:00+1e41197100 6.6 1005578
12:00+1nne2499100 3.1 1002146
15:00+2ssw4896100 4.9 1003732
18:00+2ssw4891100 0.1 1005925
21:00+2ssw4994100 0.2 1007522
22 april, thu
thu2200:00+3ssw3995100 0.0 1008324
03:00+2s3129365 0.0 1009349
06:00+2s3119683 0.1 1009325
09:00+6ssw5986100 0.1 1010588
12:00+5s4993100 0.3 1011687
15:00+10sw477474 0.4 1012995
18:00+11s38738 0.3 1012422
21:00+7s4138747 0.4 1013365
23 april, fri
fri2300:00+6sse4129371 0.0 1012346
03:00+6sse4119574 0.0 1012330
06:00+6sse4129798 0.0 1011354
09:00+10s51282100 0.0 1011786
12:00+13s61271100 0.2 10111467
15:00+13s71370100 1.9 10101790
18:00+7w3895100 2.5 1012439
21:00+6ssw1396100 6.8 1013247
24 april, sat
sat2400:00+5nnw2295100 1.8 1011174
03:00+4nw3596100 2.3 1008344
06:00+3nw3498100 0.6 1007271
09:00+2nw3698100 2.8 1006259
12:00+3w3799100 5.9 1006360
15:00+4w2697100 6.8 1007594
18:00+3nw2394100 0.1 1007313
21:00+2sw2393100 0.1 1007177
25 april, sun
sun2500:00+1sw1299100 0.0 100649
03:000wsw2698100 0.0 1005151
06:000w3991100 0.0 1005243
09:00+3w468194 0.0 1005613
12:00+5wsw567399 0.2 10061261
15:00+4wsw4772100 0.3 10061272
18:00+5wsw47705 0.2 10061117
21:00+1sw39895 0.3 1007210